Millville, NJ

9:23 PM EST on December 15, 2019 (GMT -0500)
Millville Municipal

Weather History for KMIV - October, 2019

Change the Weather History Date:

Sunday, October 13, 2019

  Actual Average Record
Temperature  
Mean Temperature 59 °F -  
Max Temperature 69 °F 67 °F 87 °F (1954)
Min Temperature 50 °F 48 °F 32 °F (1988)
Degree Days  
Heating Degree Days 6    
Growing Degree Days 9 (Base 50)    
Moisture  
Dew Point 49 °F    
Average Humidity 72    
Maximum Humidity 93    
Minimum Humidity 39    
Precipitation  
Precipitation 0.32 in - - ()
Sea Level Pressure  
Sea Level Pressure 30.06 in    
Wind  
Wind Speed 6 mph (NNE)    
Max Wind Speed 10 mph    
Max Gust Speed -    
Visibility 9 miles    
Events Rain    
Averages and records for this station are not official NWS values.
T = Trace of Precipitation, MM = Missing Value Source: NWS Daily Summary

Daily Weather History Graph

Daily Weather History Graph

Search for Another Location

Airport or City:

Astronomy

Oct. 13, 2019 Rise Set
Actual Time 7:07 AM EDT 6:24 PM EDT
Civil Twilight 6:40 AM EDT 6:51 PM EDT
Nautical Twilight 6:09 AM EDT 7:22 PM EDT
Astronomical Twilight 5:38 AM EDT 7:53 PM EDT
Moon 6:45 PM EDT (10/13) 6:40 AM EDT (10/13)
Length of Visible Light 12h 10m
Length of Day
11h 16m
Full, 100% of the Moon is Illuminated
Oct 13
Full
Oct 13
Full
Oct 21
Last Quarter
Oct 27
New
Nov 4
First Quarter

Hourly Weather History & Observations

Time (EDT) Temp. Dew Point Humidity Pressure Visibility Wind Dir Wind Speed Gust Speed Precip Events Conditions
12:54 AM 52.0 °F 48.0 °F 86% 30.03 in 10.0 mi West 4.6 mph - N/A   Mostly Cloudy
1:54 AM 57.0 °F 48.9 °F 74% 30.04 in 10.0 mi NW 6.9 mph - N/A   Clear
2:54 AM 57.0 °F 48.0 °F 72% 30.04 in 10.0 mi NW 5.8 mph - N/A   Mostly Cloudy
3:54 AM 57.0 °F 43.0 °F 59% 30.05 in 10.0 mi NW 10.4 mph - N/A   Overcast
4:54 AM 55.0 °F 43.0 °F 64% 30.06 in 10.0 mi NNW 5.8 mph - N/A   Overcast
5:54 AM 53.1 °F 42.1 °F 66% 30.08 in 10.0 mi NW 4.6 mph - N/A   Scattered Clouds
6:54 AM 50.0 °F 41.0 °F 71% 30.10 in 10.0 mi NW 4.6 mph - N/A   Partly Cloudy
7:54 AM 52.0 °F 39.9 °F 63% 30.11 in 10.0 mi NW 4.6 mph - N/A   Overcast
8:54 AM 54.0 °F 39.9 °F 59% 30.11 in 10.0 mi North 6.9 mph - N/A   Overcast
9:54 AM 57.0 °F 43.0 °F 59% 30.12 in 10.0 mi NNE 5.8 mph - N/A   Mostly Cloudy
10:54 AM 61.0 °F 46.0 °F 58% 30.11 in 10.0 mi NE 5.8 mph - N/A   Mostly Cloudy
11:54 AM 66.0 °F 46.0 °F 48% 30.10 in 10.0 mi East 8.1 mph - N/A   Scattered Clouds
12:54 PM 68.0 °F 42.1 °F 39% 30.09 in 10.0 mi Variable 3.5 mph - N/A   Mostly Cloudy
1:54 PM 68.0 °F 45.0 °F 43% 30.07 in 10.0 mi ESE 4.6 mph - N/A   Overcast
2:54 PM 66.9 °F 46.0 °F 47% 30.06 in 10.0 mi Variable 4.6 mph - N/A   Overcast
3:54 PM 63.0 °F 51.1 °F 65% 30.05 in 10.0 mi SSE 8.1 mph - 0.00 in   Overcast
4:54 PM 61.0 °F 52.0 °F 72% 30.05 in 10.0 mi SE 8.1 mph - N/A   Overcast
5:54 PM 59.0 °F 55.0 °F 87% 30.04 in 10.0 mi ESE 8.1 mph - 0.01 in   Overcast
6:54 PM 59.0 °F 55.0 °F 87% 30.04 in 10.0 mi ENE 4.6 mph - N/A   Overcast
7:54 PM 59.0 °F 55.0 °F 87% 30.03 in 10.0 mi ESE 5.8 mph - 0.00 in   Overcast
8:54 PM 59.0 °F 57.0 °F 93% 30.03 in 5.0 mi NE 4.6 mph - 0.15 in Rain Light Rain
9:15 PM 59.0 °F 57.0 °F 93% 30.02 in 8.0 mi NNE 3.5 mph - 0.01 in Rain Light Rain
9:24 PM 59.0 °F 57.0 °F 93% 30.02 in 10.0 mi NE 3.5 mph - 0.01 in   Overcast
9:54 PM 59.0 °F 57.0 °F 93% 30.01 in 10.0 mi NE 4.6 mph - 0.02 in   Overcast
10:54 PM 60.1 °F 57.9 °F 93% 30.00 in 4.0 mi NE 3.5 mph - 0.10 in Rain Light Rain
11:54 PM 60.1 °F 57.9 °F 93% 29.99 in 4.0 mi Calm Calm - 0.04 in Rain Light Rain